Regional Weather Roundup
Issued by NWS

Home | Current Version | Previous Version | Text Only | Print | Product List | Glossary Off
Versions: 1 2 3 4 5 6 7 8 9 10 11 12 13 14 15 16 17 18 19 20 21 22 23 24 25 26 27 28 29 30 31 32 33 34 35 36 37 38 39 40 41 42 43 44 45 46 47 48 49 50

000
ASUS43 KLSX 181557
RWRMO

WEATHER SUMMARY FOR MISSOURI
NATIONAL WEATHER SERVICE SPRINGFIELD MO
1100 AM CDT WED OCT 18 2017

NOTE: "FAIR" INDICATES FEW OR NO CLOUDS BELOW 12,000 FEET WITH NO
       SIGNIFICANT WEATHER AND/OR OBSTRUCTIONS TO VISIBILITY.
       CURRENT SKY AND/OR WEATHER CONDITIONS ARE NOT AVAILABLE FOR
       CHILLICOTHE AND FARMINGTON.

MOZ001>031-035>038-043-044-053-054-181700-
...NORTHERN AND WESTERN MISSOURI...

CITY           SKY/WX    TMP DP  RH WIND       PRES   REMARKS
KANSAS CTY INT MOSUNNY   64  46  52 S18       30.04F
LEE`S SUMMIT   SUNNY     64  46  52 S17G26    30.07F
ST JOSEPH      SUNNY     65  47  52 S14G24    30.02F
CHILLICOTHE      N/A     62  47  57 S14G21    30.08F

$$
MOZ066>068-077>081-088>096-101>105-181700-
...SOUTHWEST MISSOURI...

CITY           SKY/WX    TMP DP  RH WIND       PRES   REMARKS
SPRINGFIELD    SUNNY     64  44  48 S13       30.16F
JOPLIN         SUNNY     66  45  46 S18G25    30.13F
BRANSON        SUNNY     64  41  42 CALM      30.20F

$$
MOZ032>034-039>042-045>050-055>058-069>072-181700-
...CENTRAL MISSOURI...

CITY           SKY/WX    TMP DP  RH WIND       PRES   REMARKS
COLUMBIA       NOT AVBL
JEFFERSON CITY SUNNY     63  42  46 S7        30.16F
ROLLA          SUNNY     64  43  46 S16       30.19S
SEDALIA        SUNNY     65  48  54 S15       30.12F
WARRENSBURG    SUNNY     63  45  51 S13       30.10S

$$
MOZ051-052-059>065-181700-
...EAST CENTRAL MISSOURI...

CITY           SKY/WX    TMP DP  RH WIND       PRES   REMARKS
ST LOUIS INTL  MOSUNNY   65  44  46 SW13G20   30.20F

$$
MOZ072>076-082>087-097>100-106>115-181700-
...SOUTH CENTRAL AND SOUTHEAST MISSOURI...

CITY           SKY/WX    TMP DP  RH WIND       PRES   REMARKS
CAPE GIRARDEAU SUNNY     64  48  56 S12       30.27S
POPLAR BLUFF   SUNNY     64  49  57 VRB6      30.26F
WEST PLAINS    SUNNY     65  46  50 S13       30.23F

$$



USA.gov is the U.S. government's official web portal to all federal, state and local government web resources and services.